Location: Newark
(33.9035°S, 18.4112°E)
Time: 09:58:10
(UTC+00:00)

STARLINK-1107 - Pass Details

Date: 20 January 2020
Orbit: 345 x 354 km, 53.0° (Epoch: 22 February)

Event Time Altitude Azimuth Distance (km) Brightness Sun altitude
Exits shadow 01:08:04 -1° 79° (E) 2,250 7.1 -27.5°
Enters shadow 02:03:24 -70° 309° (NW) 12,357 10.5 -20.0°
Maximum altitude 02:40:52 46° 49° (NE) 481 3.4 -14.1°
